Location: ????????
(55.3939°N, 37.4780°E)
Time: 21:35:08
(UTC+00:00)

PSLV R/B - Pass Details

Date: 14 April 2026
Orbit: 584 x 680 km, 97.9° (Epoch: 16 May)

Event Time Altitude Azimuth Distance (km) Brightness Sun altitude
Rises 21:55:16 0° 11° (N) 2,872 8.4 -24.7°
Reaches altitude 10° 21:57:33 10° 4° (N) 1,952 7.2 -24.7°
Maximum altitude 22:01:31 42° 294° (WNW) 858 4.3 -24.6°
Enters shadow 22:01:38 42° 290° (WNW) 859 4.3 -24.6°
